Location: Davayat
(45.9471°N, 3.1105°E)
Time: 16:48:32
(UTC+00:00)

Meteor 1-10 Rocket - Pass Details

Date: 01 December 2020
Orbit: 836 x 910 km, 81.3° (Epoch: 23 January)

Event Time Altitude Azimuth Distance (km) Brightness Sun altitude
Rises 18:17:11 0° 186° (S) 3,427 7.6 -22.4°
Reaches altitude 10° 18:19:37 10° 186° (S) 2,484 6.8 -22.8°
Maximum altitude 18:25:15 84° 99° (E) 858 4.1 -23.8°
Enters shadow 18:28:30 26° 13° (NNE) 1,600 5.4 -24.4°
